Location: Aspen Creek
(37.2752°N, 119.3318°W)
Time: 15:16:00
(UTC+00:00)

Daily predictions for brighter satellites

Satellite Brightness Start Highest point End
(mag) Time Altitude Azimuth Time Altitude Azimuth Time Altitude Azimuth
Cosmos 2360 Rocket 4.0 12:05:02 16° N 12:08:28 28° ENE 12:13:16 10° ESE
Cosmos 2100 Rocket 4.0 12:03:34 10° S 12:09:43 75° E 12:15:52 10° N
SL-16 R/B 2.2 12:17:15 78° NE 12:17:26 79° ENE 12:23:06 10° SSE
Cosmos 2322 Rocket 2.3 12:21:32 58° N 12:22:36 74° ENE 12:28:16 10° SSE
CZ-2C R/B 4.1 12:21:41 10° NNE 12:23:16 21° NNE 12:23:16 21° NNE
Cosmos 1802 Rocket 4.0 12:26:25 10° S 12:32:50 87° E 12:39:16 10° N
ATLAS 2AS CENTAUR R/B 2.7 12:30:47 37° NNW 12:34:05 89° NE 12:40:58 10° SSE
Cosmos 2173 Rocket 3.8 12:28:45 10° SSW 12:34:59 74° W 12:41:10 10° N
ASTEX 1 4.2 12:32:55 10° S 12:36:04 39° SSW 12:36:04 39° SSW
Delta 2 Rocket 3.5 12:39:02 69° SSE 12:39:02 69° SSE 12:43:23 10° E
Cosmos 1408 Rocket 4.1 12:37:04 10° S 12:42:39 46° N 12:45:45 10° N
Lacrosse 5 rocket 3.6 12:43:33 12° NNE 12:44:22 13° NNE 12:46:05 10° ENE
Cosmos 1125 Rocket 3.5 12:41:09 10° SSW 12:46:26 80° ESE 12:51:42 10° NNE
Cosmos 372 Rocket 4.3 12:50:27 43° NW 12:50:27 43° NW 12:54:29 10° N
Cosmos 1484 Rocket 3.2 12:49:24 10° NNE 12:53:24 66° E 12:57:21 10° S
Cosmos 1864 Rocket 4.4 12:48:42 10° S 12:54:50 86° E 13:01:04 10° N
BREEZE-M DEB (TANK) 3.0 12:55:56 30° SE 12:55:56 30° SE 12:57:24 10° SE
Cosmos 2219 Rocket 4.3 12:51:49 10° N 12:56:17 23° ENE 13:00:45 10° ESE
Cosmos 2061 Rocket 3.9 12:50:31 10° SSW 12:56:43 69° W 13:02:54 10° N
Meteor PRIRODA 3.4 12:53:08 10° N 12:56:47 84° WNW 13:00:24 10° SSW
Meteor 2-3 Rocket 4.4 12:52:32 10° S 12:58:08 57° E 13:03:49 10° NNE
Cosmos 2150 Rocket 4.4 12:58:58 41° WNW 12:58:58 41° WNW 13:03:58 10° N
SL-4 R/B 2.3 13:05:10 41° WNW 13:06:46 73° SW 13:11:33 10° SE
ATLAS CENTAUR R/B 3.6 13:09:30 15° NNW 13:09:30 15° NNW 13:10:56 10° N
Cosmos 2333 Rocket 3.9 13:05:38 10° N 13:10:46 32° ENE 13:15:51 10° ESE
ALOS 2.8 13:07:03 10° NNE 13:11:42 61° E 13:16:18 10° S
Cosmos 1459 Rocket 4.4 13:06:11 10° SW 13:11:50 37° WNW 13:17:37 10° N
CZ-3B R/B 3.1 13:07:26 17° WSW 13:12:20 32° S 13:16:40 10° SE
COSMO-SKYMED 1 2.6 13:11:15 10° SSE 13:15:34 82° ENE 13:19:56 10° N
COBE Rocket 4.0 13:11:24 10° S 13:16:24 54° W 13:21:20 10° NNW
Cosmos 1400 Rocket 3.0 13:19:03 10° N 13:23:05 71° E 13:27:01 10° SSE
Cosmos 1238 Rocket 3.9 13:20:40 10° S 13:27:11 79° W 13:33:00 10° N
Cosmos 972 Rocket 4.0 13:22:38 10° SSW 13:27:40 64° WNW 13:33:14 10° N
Cosmos 2016 Rocket 4.4 13:22:29 10° SW 13:28:18 40° WNW 13:34:14 10° N
Cosmos 1725 Rocket 4.1 13:23:48 10° SSW 13:29:50 50° W 13:35:58 10° N
Cosmos 1048 Rocket 4.2 13:29:03 10° NNW 13:34:15 52° WSW 13:39:22 10° S
STARLINK 1044 3.7 13:31:44 10° SSW 13:34:26 45° SE 13:37:07 10° ENE
Cosmos 1151 Rocket 4.0 13:36:30 18° NW 13:38:33 25° W 13:42:06 10° SW
FALCON 9 DEB 2.7 13:38:26 10° SW 13:40:47 58° SE 13:43:09 10° NE
COSMOS 2455 4.2 13:40:49 16° W 13:42:19 18° WSW 13:46:06 10° SW
PAYLOAD B 4.2 13:38:14 10° N 13:43:40 64° WNW 13:49:05 10° SSW
CZ-4B DEB 4.3 13:38:35 10° N 13:43:55 55° WNW 13:49:16 10° SSW
STARLINK-67 4.3 13:44:13 16° WSW 13:44:39 17° SW 13:46:26 10° S
NOSS 3-4 (A) 4.3 13:38:52 13° NW 13:45:06 44° WSW 13:52:26 10° S
NOSS 3-4 (C) 4.3 13:38:57 12° NW 13:45:12 44° WSW 13:52:33 10° S
Starlink Launch 2 leader 2.3 13:43:53 10° SW 13:46:20 76° SE 13:48:47 10° NE
Helios 1A Rocket 2.9 13:44:45 10° N 13:48:47 61° WNW 13:52:46 10° SSW
FALCON 9 DEB 2.2 13:47:12 10° SW 13:49:35 83° SE 13:52:01 10° NE
Starlink Launch 2 trailer 2.2 13:47:34 10° SW 13:50:01 87° SE 13:52:27 10° NE
STARLINK 1050 2.7 13:47:35 10° SW 13:50:25 79° SE 13:53:16 10° NE
STARLINK 1055 2.6 13:48:39 10° SW 13:51:28 81° SE 13:54:18 10° NE
FALCON 9 DEB 2.1 13:50:05 10° SW 13:52:30 88° N 13:54:55 10° NE
Cosmos 2360 Rocket 2.7 13:47:18 10° NW 13:52:31 38° WSW 13:57:40 10° S
STARLINK 1022 2.6 13:50:06 10° SW 13:52:59 85° SE 13:55:52 10° NE
Meteor 1-26 Rocket 4.2 13:47:33 10° NNW 13:53:04 59° W 13:58:26 10° S
STARLINK 1042 2.6 13:50:37 10° SW 13:53:27 86° SE 13:56:18 10° NE
Cosmos 18254.413:56:14NW13:56:14NW13:49:58SW
Cosmos 1818 3.6 13:49:15 10° SW 13:54:39 65° WNW 14:00:05 10° NNE
STARLINK 1056 2.5 13:51:52 10° SW 13:54:41 89° S 13:57:32 10° NE
STARLINK 1054 2.5 13:53:04 10° SW 13:55:54 88° NNW 13:58:45 10° NE
Cosmos 1606 3.5 13:53:12 10° NNW 13:56:32 29° W 13:59:53 10° SSW
STARLINK 1062 2.5 13:54:01 10° SW 13:56:50 85° NW 13:59:40 10° NE
STARLINK 1053 2.5 13:55:35 10° SW 13:58:25 82° NW 14:01:15 10° NE
STARLINK 1061 2.5 13:56:14 10° SW 13:59:05 80° NW 14:01:59 10° NE
Cosmos 2237 Rocket 4.0 13:54:46 10° N 13:59:40 29° ENE 14:04:30 10° ESE
STARLINK 1067 2.5 13:57:30 10° SW 14:00:20 77° NW 14:03:10 10° NE
Cosmos 972 4.4 13:55:44 10° SSW 14:00:36 62° WNW 14:05:52 10° N
SL-16 R/B 3.9 13:59:12 11° W 14:00:44 12° W 14:02:42 10° WSW
METEOR-M 4.4 13:56:20 10° N 14:01:23 44° WNW 14:06:25 10° SW
STARLINK 1058 2.5 13:58:33 10° SW 14:01:23 74° NW 14:04:14 10° NE
STARLINK-46 2.7 13:59:00 12° NW 14:01:43 81° SW 14:04:41 10° SE
GPS 2-05 Rocket1 3.1 13:59:27 10° WSW 14:01:57 42° S 14:04:29 10° E
STARLINK 1043 2.5 13:59:40 10° SW 14:02:31 72° NW 14:05:24 10° NE
COSMOS 2428 2.9 13:57:03 10° NNW 14:02:48 81° ENE 14:08:31 10° SSE
STARLINK 1065 2.5 14:00:40 10° SW 14:03:31 70° NW 14:06:22 10° NE
Cosmos 1805 Rocket 3.6 14:00:31 10° SSW 14:04:44 53° W 14:08:59 10° N
STARLINK 1063 2.6 14:02:04 10° SW 14:04:54 67° NW 14:07:46 10° NE
Exosat Rocket 4.4 13:59:18 10° NNW 14:05:21 90° SW 14:13:57 10° SSE
STARLINK 1027 2.6 14:02:36 10° SW 14:05:27 66° NW 14:08:20 10° NE
STARLINK 1028 2.6 14:02:49 10° SW 14:05:40 65° NW 14:08:33 10° NE
STARLINK 1064 2.6 14:03:00 10° SW 14:05:50 65° NW 14:08:41 10° NE
STARLINK 1021 2.6 14:03:00 10° SW 14:05:51 65° NW 14:08:44 10° NE
Cosmos 2322 Rocket 3.9 14:03:29 10° WNW 14:05:54 13° W 14:08:19 10° WSW
Cosmos 1707 Rocket 4.0 14:01:33 10° N 14:06:01 68° E 14:10:26 10° SSE
STARLINK 1019 2.6 14:03:14 10° SW 14:06:05 65° NW 14:08:58 10° NE
STARLINK 1012 2.6 14:03:26 10° SW 14:06:16 64° NW 14:09:09 10° NE
STARLINK 1010 2.6 14:03:36 10° SW 14:06:27 64° NW 14:09:18 10° NE
STARLINK 1026 2.6 14:03:52 10° SW 14:06:43 63° NW 14:09:36 10° NE
Cosmos 494 Rocket 4.3 14:01:42 10° NNW 14:06:44 49° WSW 14:11:41 10° S
STARLINK 1034 2.6 14:04:09 10° WSW 14:06:55 62° NW 14:09:44 10° NE
STARLINK 1013 2.6 14:04:07 10° WSW 14:06:57 63° NW 14:09:49 10° NE
STARLINK 1041 2.6 14:04:09 10° WSW 14:06:59 62° NW 14:09:50 10° NE
Okean O Rocket 2.0 14:03:06 10° N 14:07:09 39° WNW 14:11:12 10° SW
STARLINK 1009 2.6 14:04:22 10° WSW 14:07:13 62° NW 14:10:05 10° NE
STARLINK 1015 2.6 14:04:28 10° WSW 14:07:18 62° NW 14:10:11 10° NE
STARLINK 1016 2.6 14:04:41 10° WSW 14:07:33 62° NW 14:10:25 10° NE
STARLINK 1008 2.6 14:04:54 10° WSW 14:07:45 61° NW 14:10:37 10° NE
STARLINK 1014 2.6 14:05:04 10° WSW 14:07:55 61° NW 14:10:47 10° NE
STARLINK 1038 2.6 14:05:09 10° WSW 14:07:58 60° NW 14:10:49 10° NE
STARLINK 1025 2.7 14:05:17 10° WSW 14:08:08 61° NW 14:11:00 10° NE
STARLINK 1045 2.6 14:05:23 10° WSW 14:08:14 60° NW 14:11:05 10° NE
STARLINK 1017 2.7 14:05:31 10° WSW 14:08:21 60° NW 14:11:14 10° NE
STARLINK 1023 2.7 14:05:43 10° WSW 14:08:34 60° NW 14:11:27 10° NE
STARLINK 1007 2.7 14:05:54 10° WSW 14:08:43 59° NW 14:11:36 10° NE
STARLINK 1048 2.7 14:06:08 10° WSW 14:09:00 59° NW 14:11:51 10° NE
STARLINK 1049 2.7 14:06:17 10° WSW 14:09:08 59° NW 14:12:00 10° NE
Cosmos 2228 Rocket 4.0 14:05:12 10° NNW 14:09:11 30° W 14:13:08 10° SSW
STARLINK 1046 2.7 14:06:30 10° WSW 14:09:20 58° NW 14:12:11 10° NE
STARLINK 1051 2.7 14:06:31 10° WSW 14:09:22 58° NW 14:12:14 10° NE
STARLINK 1068 2.7 14:06:38 10° WSW 14:09:28 58° NW 14:12:20 10° NE
STARLINK 1037 2.7 14:06:44 10° WSW 14:09:35 58° NW 14:12:27 10° NE
STARLINK 1059 2.7 14:06:58 10° WSW 14:09:48 58° NW 14:12:40 10° NE
SJ-7 4.5 14:05:57 10° N 14:09:59 55° WNW 14:13:56 10° SSW
STARLINK 1057 2.7 14:07:10 10° WSW 14:10:01 57° NW 14:12:52 10° NE
STARLINK 1052 2.7 14:07:24 10° WSW 14:10:14 57° NW 14:13:07 10° NE
STARLINK 1039 2.7 14:07:41 10° WSW 14:10:30 56° NW 14:13:21 10° NE
STARLINK 1029 2.7 14:07:47 10° WSW 14:10:38 56° NW 14:13:30 10° NE
STARLINK 1060 2.7 14:08:00 10° WSW 14:10:50 56° NW 14:13:41 10° NE
STARLINK 1030 2.7 14:08:13 10° WSW 14:11:03 56° NW 14:13:56 10° NE
STARLINK 1020 2.7 14:08:24 10° WSW 14:11:15 55° NW 14:14:06 10° NE
STARLINK 1033 2.8 14:09:05 10° WSW 14:11:55 54° NW 14:14:45 10° NE
STARLINK 1031 2.8 14:09:13 10° WSW 14:12:02 54° NW 14:14:52 10° NE
STARLINK 1024 2.8 14:09:30 10° WSW 14:12:21 54° NW 14:15:12 10° NE
STARLINK 1035 2.8 14:09:38 10° WSW 14:12:29 53° NW 14:15:21 10° NE
STARLINK 1047 2.8 14:09:43 10° WSW 14:12:33 53° NW 14:15:24 10° NE
STARLINK 1032 2.8 14:09:51 10° WSW 14:12:42 53° NW 14:15:33 10° NE
STARLINK 1011 2.8 14:10:04 10° WSW 14:12:54 53° NW 14:15:45 10° NE
STARLINK 1036 2.8 14:10:19 10° WSW 14:13:09 52° NW 14:16:00 10° NE
CZ-4 R/B 4.4 14:14:06 10° NE 14:16:40 17° E 14:19:13 10° SE
FENGYUN 3A 4.3 14:12:19 10° N 14:17:08 34° WNW 14:21:55 10° SW
ADEOS Rocket 4.2 14:10:29 10° SSE 14:18:02 60° ENE 14:25:11 10° N
RESURS DK-1 3.1 14:15:22 10° NNW 14:19:27 57° ENE 14:23:31 10° SE
IRS-1C Rocket 4.2 14:15:22 10° NNE 14:20:40 90° ESE 14:25:55 10° SSW
Delta 2 Rocket 4.2 14:16:47 10° W 14:21:06 51° SSW 14:25:59 10° ESE
Cosmos 2034 Rocket 4.4 14:16:47 10° S 14:22:56 74° E 14:29:12 10° N
